DW6828 Weather Reports


time (UTC)temp
C
wind
direction
speed
KPH
gust
KPH
rain 1hr
cm
rain 24hr
cm
rain mn
cm
humidity
%
barometer
mb
20260507050039 8 0 1.6 8.0 0.00 0.00 0.00 50 1006.3
20260507044549 8 0 0.0 8.0 0.00 0.00 0.00 46 1006.3
20260507043036 8 0 0.0 8.0 0.00 0.00 0.00 49 1006.6
20260507041546 8 0 0.0 1.6 0.00 0.00 0.00 53 1006.6
20260507040046 9 0 0.0 9.7 0.00 0.00 0.00 54 1006.8
20260507034544 9 0 0.0 8.0 0.00 0.00 0.00 56 1006.8
20260507033049 9 239 0.0 11.3 0.00 0.00 0.00 58 1006.8
20260507031552 9 0 0.0 12.9 0.00 0.00 0.00 59 1006.9
20260507030051 10 0 1.6 12.9 0.00 0.00 0.00 61 1007.0
20260507024602 10 248 0.0 4.8 0.00 0.00 0.00 61 1006.9
20260507023041 10 244 1.6 11.3 0.00 0.00 0.00 62 1006.9
20260507021550 10 0 1.6 12.9 0.00 0.00 0.00 62 1006.9
20260507020053 10 0 3.2 14.5 0.00 0.00 0.00 62 1006.9
20260507014549 10 0 0.0 14.5 0.00 0.00 0.00 63 1007.0
20260507013040 10 178 0.0 11.3 0.00 0.00 0.00 63 1006.9
20260507011547 10 0 0.0 14.5 0.00 0.00 0.00 63 1006.8
20260507010045 10 188 0.0 14.5 0.00 0.00 0.00 63 1006.8
20260507004539 10 212 0.0 17.7 0.00 0.00 0.00 63 1006.7
20260507003039 10 0 0.0 14.5 0.00 0.00 0.00 63 1006.7
20260507001542 10 0 0.0 9.7 0.00 0.00 0.00 63 1006.5
20260507000042 11 0 0.0 17.7 0.00 0.00 0.00 61 1006.4
20260506234552 11 0 1.6 12.9 0.00 0.00 0.00 61 1006.2
20260506233048 11 0 0.0 14.5 0.00 0.00 0.00 60 1006.2
20260506231541 11 0 0.0 6.4 0.00 0.00 0.00 60 1005.9
20260506230037 11 0 0.0 11.3 0.00 0.00 0.00 60 1006.0
20260506224540 11 260 0.0 11.3 0.00 0.00 0.00 60 1006.0
20260506223041 11 0 0.0 8.0 0.00 0.00 0.00 60 1006.1
20260506221539 12 0 0.0 12.9 0.00 0.00 0.00 59 1006.0
20260506220039 12 0 0.0 9.7 0.00 0.00 0.00 58 1006.0
20260506214538 12 0 0.0 12.9 0.00 0.00 0.00 57 1006.1
20260506213038 12 132 1.6 12.9 0.00 0.00 0.00 54 1006.0
20260506211544 13 0 0.0 12.9 0.00 0.00 0.00 55 1005.9
20260506210041 13 0 0.0 12.9 0.00 0.00 0.00 52 1005.9
20260506204541 14 0 0.0 9.7 0.00 0.00 0.00 51 1005.8
20260506203041 14 0 0.0 9.7 0.00 0.00 0.00 49 1005.8
20260506201540 14 0 0.0 16.1 0.00 0.00 0.00 53 1006.0
20260506200040 14 0 0.0 1.6 0.00 0.00 0.00 48 1006.2
20260506194541 14 0 0.0 11.3 0.00 0.00 0.00 50 1006.4
20260506193042 14 0 0.0 8.0 0.00 0.00 0.00 54 1006.5
20260506191538 13 0 0.0 6.4 0.00 0.00 0.00 56 1006.7
20260506190040 12 282 0.0 11.3 0.00 0.00 0.00 58 1006.6
20260506184544 12 169 0.0 12.9 0.00 0.00 0.00 58 1006.6
20260506183042 12 0 0.0 9.7 0.00 0.00 0.00 57 1006.7
20260506181540 12 287 1.6 9.7 0.00 0.00 0.00 57 1006.6
20260506180045 11 225 0.0 9.7 0.00 0.00 0.00 60 1006.9
20260506174539 11 0 0.0 9.7 0.00 0.00 0.00 62 1006.9
20260506173057 10 179 0.0 11.3 0.00 0.00 0.00 62 1007.1
20260506171536 10 135 0.0 4.8 0.00 0.00 0.00 63 1006.9
20260506170044 10 0 0.0 8.0 0.00 0.00 0.00 62 1007.1
20260506164541 11 0 0.0 0.0 0.00 0.00 0.00 60 1007.2
20260506163040 11 0 0.0 0.0 0.00 0.00 0.00 58 1007.3
20260506161539 10 0 0.0 4.8 0.00 0.00 0.00 60 1007.4
20260506160037 10 0 0.0 4.8 0.00 0.00 0.00 60 1007.4
20260506154540 10 0 0.0 3.2 0.00 0.00 0.00 60 1007.6
20260506153046 10 0 0.0 6.4 0.00 0.00 0.00 61 1007.5
20260506151541 10 185 0.0 8.0 0.00 0.00 0.00 61 1007.8
20260506150056 10 0 3.2 12.9 0.00 0.00 0.00 62 1008.1
20260506144541 9 0 0.0 11.3 0.00 0.00 0.00 63 1007.9
20260506143044 9 249 0.0 8.0 0.00 0.00 0.00 62 1007.9
20260506141540 9 0 0.0 0.0 0.00 0.00 0.00 63 1007.5
20260506140041 9 0 0.0 0.0 0.00 0.00 0.00 63 1007.5
20260506134539 9 0 0.0 0.0 0.00 0.30 0.00 63 1007.6
20260506133039 9 0 0.0 0.0 0.00 0.30 0.00 61 1007.5
20260506131546 9 0 0.0 0.0 0.00 0.30 0.00 59 1007.6
20260506130052 8 0 0.0 0.0 0.00 0.30 0.00 60 1007.7
20260506124545 8 0 0.0 0.0 0.00 0.33 0.00 58 1007.5
20260506123042 8 0 0.0 0.0 0.00 0.33 0.00 60 1007.6
20260506121539 8 0 0.0 0.0 0.00 0.33 0.00 63 1007.5
20260506120036 8 0 0.0 0.0 0.00 0.33 0.00 64 1007.6
20260506114542 8 0 0.0 0.0 0.00 0.33 0.00 64 1007.7
20260506113050 8 0 0.0 0.0 0.00 0.33 0.00 64 1007.5
20260506111541 8 0 0.0 0.0 0.00 0.33 0.00 64 1007.5
20260506110047 8 0 0.0 0.0 0.00 0.33 0.00 63 1007.4
20260506104543 7 0 0.0 0.0 0.00 0.33 0.00 64 1007.4
20260506103045 7 0 0.0 0.0 0.00 0.33 0.00 63 1007.5
20260506101552 7 0 0.0 0.0 0.00 0.33 0.00 61 1007.5
20260506100059 8 0 0.0 0.0 0.00 0.33 0.00 60 1007.7
20260506094540 8 0 0.0 0.0 0.00 0.33 0.00 58 1007.4
20260506093043 8 0 0.0 0.0 0.00 0.33 0.00 58 1007.4
20260506091538 8 0 0.0 0.0 0.00 0.33 0.00 58 1007.2
20260506090035 8 0 0.0 0.0 0.00 0.33 0.00 56 1007.3
20260506084604 8 0 0.0 0.0 0.00 0.33 0.00 55 1007.3
20260506083040 8 0 0.0 0.0 0.00 0.33 0.00 53 1007.5
20260506081546 8 0 0.0 0.0 0.00 0.33 0.00 52 1007.3
20260506073046 9 0 0.0 0.0 0.00 0.33 0.00 51 1007.5
20260506071541 9 0 0.0 0.0 0.00 0.33 0.00 51 1007.5
20260506061537 10 0 0.0 0.0 0.00 0.33 0.00 48 1007.2